This is the latest recevied weather packets stored in our database for station/object JF2ZGN-13. If no packets are shown the sender has not sent any weather packets the latest 10 day(s).
| Time | Temp. | Humidity | Pressure | Rain* | Wind** | Luminosity | Snow |
|---|---|---|---|---|---|---|---|
| 1777504244 | 7.22° C | 51% | 910.6 hPa | 1.02 mm | - | - | - |
| 1777503642 | 7.22° C | 51% | 910.5 hPa | 1.02 mm | - | - | - |
| 1777503041 | 7.22° C | 52% | 910.6 hPa | 0.76 mm | - | - | - |
| 1777502441 | 7.22° C | 53% | 910.6 hPa | 0.76 mm | - | - | - |
| 1777501840 | 7.22° C | 53% | 910.5 hPa | 0.76 mm | - | - | - |
| 1777501240 | 7.22° C | 53% | 910.5 hPa | 0.76 mm | - | - | - |
| 1777500639 | 7.22° C | 58% | 910.5 hPa | 0.76 mm | - | - | - |
| 1777500039 | 7.22° C | 50% | 910.5 hPa | 0.51 mm | - | - | - |
| 1777499439 | 7.22° C | 49% | 910.5 hPa | 0.51 mm | - | - | - |
| 1777498838 | 7.22° C | 50% | 910.4 hPa | 0.51 mm | - | - | - |
| 1777498238 | 7.22° C | 50% | 910.4 hPa | 0.51 mm | - | - | - |
| 1777497637 | 7.22° C | 50% | 910.1 hPa | 0.51 mm | - | - | - |
| 1777497036 | 7.22° C | 50% | 909.9 hPa | 0.51 mm | - | - | - |
| 1777496437 | 7.22° C | 50% | 909.9 hPa | 0.51 mm | - | - | - |
| 1777495836 | 7.22° C | 49% | 909.8 hPa | 0.51 mm | - | - | - |
| 1777495235 | 7.22° C | 50% | 909.7 hPa | 0.51 mm | - | - | - |
| 1777494635 | 7.78° C | 50% | 909.6 hPa | 0.51 mm | - | - | - |
| 1777494034 | 7.78° C | 48% | 909.5 hPa | 0.51 mm | - | - | - |
| 1777493434 | 7.78° C | 49% | 909.5 hPa | 0.51 mm | - | - | - |
| 1777492834 | 7.78° C | 49% | 909.4 hPa | 0.51 mm | - | - | - |
| 1777492233 | 7.78° C | 48% | 909.5 hPa | 0.51 mm | - | - | - |
| 1777491633 | 7.78° C | 48% | 909.4 hPa | 0.51 mm | - | - | - |
| 1777491033 | 7.78° C | 52% | 909.5 hPa | 0.25 mm | - | - | - |
| 1777490431 | 7.22° C | 49% | 909.3 hPa | 0.25 mm | - | - | - |
| 1777489832 | 7.22° C | 49% | 909.4 hPa | 0.25 mm | - | - | - |
* Rain since midnight (hover to see other rain measurements)
** Current wind speed in m/s (hover to see current wind gust speed)